Waarnemingen

Advertentie
Mijn weer
Fürstenzell, Duitsland (10895): temperatuur & dauwpunt: 17.07.2017 08:00:00 - 23.07.2017 08:00:00 (CEST)Fürstenzell, Duitsland (10895): temperatuur 5cm & temperatuur -5cm: 17.07.2017 08:00:00 - 23.07.2017 08:00:00 (CEST)Fürstenzell, Duitsland (10895): temperatuur -20cm & temperatuur -100cm: 17.07.2017 08:00:00 - 23.07.2017 08:00:00 (CEST)Fürstenzell, Duitsland (10895): windsnelheid & windstoten: 17.07.2017 08:00:00 - 23.07.2017 08:00:00 (CEST)Fürstenzell, Duitsland (10895): windrichting: 17.07.2017 08:00:00 - 23.07.2017 08:00:00 (CEST)Fürstenzell, Duitsland (10895): luchtdruk: 17.07.2017 08:00:00 - 23.07.2017 08:00:00 (CEST)Fürstenzell, Duitsland (10895): zicht: 17.07.2017 08:00:00 - 23.07.2017 08:00:00 (CEST)Fürstenzell, Duitsland (10895): Zonneschijnduur: 17.07.2017 08:00:00 - 23.07.2017 08:00:00 (CEST)Fürstenzell, Duitsland (10895): neerslag: 17.07.2017 08:00:00 - 23.07.2017 08:00:00 (CEST)
Datum & Tijd tt [°C] td [°C] tt 5cm [°C] tt -5cm [°C] tt -20cm [°C] tt -100cm [°C] ff [km/u] ff [kn] fx [km/u] fx [kn] dd ppp [hPa] vv [km] sd [min] rr [mm]
23.07.2017 08:00:00 16,0 16,0 16,3 19,7 22,7 19,7 14 7 17 9 NNO 1017,3 5 0 1,6
23.07.2017 07:00:00 16,1 15,9 16,1 19,7 22,9 19,7 7 4 43 23 ZW 1017,7 7 0 1,1
23.07.2017 06:00:00 17,1 15,3 16,6 20,1 23,2 19,7 31 17 45 24 W 1016,2 27 0 0,2
23.07.2017 05:00:00 17,7 15,6 16,5 20,6 23,5 19,7 17 9 29 15 ZW 1015,6 12 0 0,2
23.07.2017 04:00:00 16,7 15,1 16,2 20,8 23,9 19,7 13 7 14 8 NO 1013,9 22 0 0,0
23.07.2017 03:00:00 17,5 15,2 16,8 21,3 24,2 19,7 7 4 8 5 NO 1014,1 33 0 0,0
23.07.2017 02:00:00 18,3 15,4 16,9 22,0 24,6 19,7 4 2 12 6 NNO 1014,0 35 0 0,0
23.07.2017 01:00:00 20,3 14,6 18,2 22,7 24,9 19,7 8 5 13 7 OZO 1014,1 40 0 0,0
23.07.2017 00:00:00 20,9 14,4 18,2 23,5 25,3 19,7 6 3 12 6 O 1014,0 47 0 0,0
22.07.2017 23:00:00 22,0 14,3 19,4 24,4 25,6 19,7 6 3 11 6 OZO 1014,1 39 0 0,0
22.07.2017 22:00:00 23,2 14,2 21,2 25,5 25,8 19,7 4 2 13 7 ZZO 1013,8 53 0 0,0
22.07.2017 21:00:00 23,8 14,5 22,6 27,0 25,9 19,7 11 6 13 7 ZO 1013,3 63 36 0,0
22.07.2017 20:00:00 26,5 15,2 25,4 28,4 25,8 19,7 0 0 13 7 W 1012,6 65 60 0,0
22.07.2017 19:00:00 27,0 14,2 27,9 29,3 25,5 19,7 10 5 19 10 W 1012,5 54 50 0,0
22.07.2017 18:00:00 27,3 13,7 30,2 29,8 25,1 19,7 4 2 19 10 ZW 1012,3 56 39 0,0
22.07.2017 17:00:00 27,1 14,1 29,9 30,3 24,6 19,7 9 5 20 11 ZW 1012,5 56 53 0,0
22.07.2017 16:00:00 26,3 13,5 29,3 31,0 23,9 19,7 9 5 23 12 WZW 1013,2 33 60 0,0
22.07.2017 15:00:00 26,0 13,2 30,5 30,4 23,2 19,7 11 6 22 12 WZW 1013,6 29 60 0,0
22.07.2017 14:00:00 25,3 14,7 30,1 28,2 22,6 19,7 8 5 23 12 ZW 1014,0 44 50 0,0
22.07.2017 13:00:00 24,5 14,5 31,3 26,2 22,2 19,7 11 6 19 10 W 1014,2 32 54 0,0
22.07.2017 12:00:00 22,2 14,9 26,8 23,1 22,1 19,6 6 4 14 7 ZZW 1014,6 49 7 0,0
22.07.2017 11:00:00 21,1 15,5 22,6 22,3 21,9 19,6 8 4 20 11 W 1014,7 49 0 0,0
22.07.2017 10:00:00 20,8 15,3 23,0 22,5 21,8 19,6 11 6 20 11 WZW 1014,3 41 37 0,0
22.07.2017 09:00:00 19,8 15,6 23,8 21,2 21,8 19,6 13 7 18 10 WZW 1014,3 28 57 0,0
22.07.2017 08:00:00 16,8 15,4 17,9 19,3 22,0 19,6 9 5 13 7 ZW 1014,5 23 15 0,0
22.07.2017 07:00:00 15,3 14,9 15,6 18,7 22,2 19,6 7 4 13 7 Z 1014,3 14 5 0,0
22.07.2017 06:00:00 14,9 14,5 14,5 18,7 22,5 19,6 4 2 11 6 ZZW 1013,7 14 0 0,0
22.07.2017 05:00:00 16,2 14,7 14,6 19,1 22,9 19,6 4 2 19 10 ZW 1012,9 37 0 0,0
22.07.2017 04:00:00 16,6 14,2 15,3 19,5 23,2 19,6 15 8 20 11 WZW 1012,5 58 0 0,0
22.07.2017 03:00:00 17,3 14,4 15,2 19,9 23,6 19,6 8 4 11 6 O 1011,3 69 0 0,0
22.07.2017 02:00:00 17,0 14,7 15,4 20,4 24,0 19,6 8 4 14 8 O 1011,5 60 0 0,0
22.07.2017 01:00:00 16,6 14,8 15,7 21,0 24,4 19,6 6 3 16 9 W 1011,8 35 0 0,0
22.07.2017 00:00:00 18,0 14,7 17,2 21,7 24,8 19,6 10 6 25 13 NNO 1011,7 55 0 0,0
21.07.2017 23:00:00 19,2 13,6 18,4 22,3 25,2 19,6 17 9 37 20 OZO 1012,3 60 0 0,0
21.07.2017 22:00:00 19,1 13,7 18,2 23,9 25,4 19,5 23 13 42 23 ZO 1012,6 70 0 0,9
21.07.2017 21:00:00 24,8 15,9 24,1 26,0 25,5 19,5 5 3 10 5 Z 1011,1 36 24 0,0
21.07.2017 20:00:00 26,0 15,8 25,9 26,9 25,5 19,5 8 4 14 7 ZO 1010,0 32 39 0,0
21.07.2017 19:00:00 26,3 15,0 26,3 27,6 25,4 19,5 11 6 18 10 O 1010,0 41 10 0,0
21.07.2017 18:00:00 27,2 13,9 27,9 28,4 25,2 19,5 12 6 23 13 O 1010,3 28 60 0,0
21.07.2017 17:00:00 27,7 14,3 29,7 28,7 24,9 19,5 14 8 22 12 O 1010,7 29 59 0,0
21.07.2017 16:00:00 27,5 12,6 30,4 29,1 24,4 19,5 12 6 23 12 NO 1011,4 31 60 0,0
21.07.2017 15:00:00 26,5 14,2 29,8 29,1 24,0 19,5 13 7 21 11 O 1012,1 35 57 0,0
21.07.2017 14:00:00 25,4 16,3 28,3 28,6 23,4 19,5 11 6 19 10 O 1012,9 32 49 0,0
21.07.2017 13:00:00 24,0 16,9 27,0 28,2 22,9 19,4 10 5 17 9 ONO 1013,7 19 60 0,0
21.07.2017 12:00:00 22,5 17,1 25,9 26,7 22,4 19,4 12 6 18 10 NO 1014,4 14 60 0,0
21.07.2017 11:00:00 20,3 17,5 23,4 24,7 22,1 19,4 8 4 13 7 NO 1015,5 9 58 0,0
21.07.2017 10:00:00 18,1 16,7 21,8 22,1 22,0 19,4 4 2 8 5 NO 1016,2 4,9 10 0,0
21.07.2017 09:00:00 15,8 15,8 17,6 20,5 22,1 19,4 1 1 9 5 NO 1016,6 0,2 1 0,0
21.07.2017 08:00:00 15,0 15,0 16,0 19,3 22,3 19,4 6 3 9 5 ONO 1016,4 0,2 8 0,0
21.07.2017 07:00:00 14,6 14,6 14,9 18,9 22,6 19,4 0 0 0 0 N 1016,4 1,2 17 0,0
21.07.2017 06:00:00 14,6 14,6 14,0 18,7 22,9 19,3 1 1 6 3 Z 1016,1 3,4 0 0,0
21.07.2017 05:00:00 14,9 14,8 13,8 19,2 23,2 19,3 3 2 5 3 Z 1015,8 10 0 0,0
21.07.2017 04:00:00 14,5 14,5 14,6 19,7 23,6 19,3 4 2 10 5 ONO 1016,1 0,1 0 0,0
21.07.2017 03:00:00 15,0 15,0 14,8 20,0 24,0 19,3 5 3 6 3 WZW 1016,2 0,5 0 0,0
21.07.2017 02:00:00 15,2 15,2 15,1 20,5 24,4 19,3 4 2 7 4 Z 1016,1 2,8 0 0,0
21.07.2017 01:00:00 15,4 15,4 15,3 20,9 24,8 19,3 3 1 6 3 ZW 1015,9 3,7 0 0,0
21.07.2017 00:00:00 15,7 15,2 15,4 21,5 25,2 19,3 0 0 0 0 N 1015,9 26 0 0,0
20.07.2017 23:00:00 15,8 15,5 15,9 22,1 25,7 19,2 4 2 10 5 O 1016,1 22 0 0,0
20.07.2017 22:00:00 16,0 15,5 16,1 22,6 26,3 19,2 6 3 20 11 ZZW 1015,5 50 0 1,0
20.07.2017 21:00:00 16,0 15,8 16,2 23,5 26,8 19,2 14 8 36 19 WZW 1015,0 6 0 3,2
20.07.2017 20:00:00 16,7 15,6 16,2 25,2 27,2 19,2 26 14 53 28 WZW 1014,6 7 0 1,6
20.07.2017 19:00:00 19,5 15,6 17,6 28,2 27,4 19,2 40 22 61 33 W 1012,1 14 0 0,0
20.07.2017 18:00:00 25,3 13,8 25,4 30,5 27,3 19,2 27 14 50 27 WNW 1009,2 40 0 0,0
20.07.2017 17:00:00 27,4 14,0 28,5 32,4 27,0 19,1 19 10 27 14 WNW 1008,8 43 36 0,0
20.07.2017 16:00:00 29,0 13,9 32,9 33,1 26,5 19,1 13 7 24 13 WNW 1008,7 25 44 0,0
20.07.2017 15:00:00 28,3 13,4 31,7 33,3 25,8 19,1 9 5 22 12 WNW 1009,2 43 38 0,0
20.07.2017 14:00:00 29,0 14,0 34,7 32,9 25,2 19,1 12 7 24 13 WZW 1009,4 23 59 0,0
20.07.2017 13:00:00 26,9 13,7 30,2 31,3 24,6 19,1 9 5 21 11 ZZW 1010,1 34 48 0,0
20.07.2017 12:00:00 26,9 14,2 30,9 30,1 24,1 19,1 6 3 21 12 ZW 1010,5 32 59 0,0
20.07.2017 11:00:00 25,1 15,2 30,1 27,6 23,7 19,0 4 2 14 7 WZW 1011,5 39 59 0,0
20.07.2017 10:00:00 22,6 14,1 24,6 25,1 23,7 19,0 3 1 13 7 ZW 1012,4 39 35 0,0
20.07.2017 09:00:00 20,7 14,8 23,4 22,8 23,8 19,0 5 3 11 6 ZW 1013,2 37 6 0,0
20.07.2017 08:00:00 18,3 14,5 19,0 22,0 24,0 19,0 8 4 13 7 ZZW 1013,5 31 0 0,0
20.07.2017 07:00:00 18,9 13,8 19,2 21,9 24,3 19,0 8 4 14 8 ZW 1012,9 37 16 0,0
20.07.2017 06:00:00 18,1 13,4 17,5 21,7 24,6 19,0 9 5 16 9 ZZW 1013,0 36 0 0,0
20.07.2017 05:00:00 18,9 13,1 15,5 22,0 25,0 19,0 4 2 11 6 NNO 1012,0 55 0 0,0
20.07.2017 04:00:00 18,6 13,4 17,8 22,6 25,4 18,9 11 6 16 8 NO 1012,6 58 0 0,0
20.07.2017 03:00:00 19,1 13,3 17,4 23,3 25,8 18,9 4 2 41 22 NO 1012,7 33 0 0,0
20.07.2017 02:00:00 19,3 12,9 18,5 23,8 26,2 18,9 13 7 45 24 WZW 1012,6 56 0 0,0
20.07.2017 01:00:00 20,3 12,4 17,7 24,6 26,6 18,9 7 4 11 6 ONO 1011,6 70 0 0,0
20.07.2017 00:00:00 20,5 12,5 18,7 25,5 27,1 18,9 9 5 15 8 NO 1011,6 70 0 0,0
19.07.2017 23:00:00 22,1 12,2 20,8 26,7 27,4 18,9 11 6 29 16 OZO 1011,3 66 0 0,0
19.07.2017 22:00:00 23,4 12,5 22,5 28,1 27,7 18,9 22 12 30 16 ZO 1011,2 63 0 0,0
19.07.2017 21:00:00 26,1 12,7 24,1 29,9 27,8 18,9 9 5 13 7 OZO 1010,5 70 46 0,0
19.07.2017 20:00:00 28,2 12,0 27,5 31,6 27,7 18,8 6 4 11 6 OZO 1010,0 70 60 0,0
19.07.2017 19:00:00 30,0 10,6 30,6 32,8 27,5 18,8 6 4 13 7 NNO 1009,9 70 60 0,0
19.07.2017 18:00:00 30,7 11,2 32,9 33,6 27,0 18,8 10 6 21 11 W 1010,2 42 60 0,0
19.07.2017 17:00:00 30,7 11,7 34,1 33,9 26,5 18,8 9 5 21 12 WZW 1010,4 47 60 0,0
19.07.2017 16:00:00 29,6 11,9 33,9 34,6 25,8 18,8 5 3 17 9 Z 1011,4 26 60 0,0
19.07.2017 15:00:00 29,1 11,8 34,2 34,1 25,0 18,8 8 4 24 13 ZZW 1012,1 38 60 0,0
19.07.2017 14:00:00 28,5 12,5 32,9 32,9 24,2 18,8 9 5 19 10 ZW 1012,7 27 60 0,0
19.07.2017 13:00:00 28,2 13,3 33,2 31,4 23,5 18,8 8 4 18 10 ZZW 1013,3 38 60 0,0
19.07.2017 12:00:00 26,3 12,6 33,3 29,2 23,0 18,8 6 3 10 6 WZW 1013,9 27 60 0,0
19.07.2017 11:00:00 24,8 12,7 28,8 26,9 22,7 18,7 6 3 11 6 WZW 1014,5 34 60 0,0
19.07.2017 10:00:00 22,0 13,5 24,4 23,4 22,6 18,7 3 2 9 5 ZW 1015,4 60 22 0,0
19.07.2017 09:00:00 19,3 14,6 20,6 21,7 22,7 18,7 0 0 11 6 N 1016,0 42 0 0,0
19.07.2017 08:00:00 17,6 14,5 18,2 21,1 23,0 18,7 2 1 14 8 O 1016,0 47 0 0,0
19.07.2017 07:00:00 19,2 13,1 18,7 20,9 23,2 18,7 4 2 8 5 ZZW 1015,1 70 3 0,0
19.07.2017 06:00:00 19,0 13,0 17,9 20,9 23,6 18,7 4 2 8 5 ZZW 1015,0 63 0 0,0
19.07.2017 05:00:00 18,3 13,4 16,8 21,2 23,9 18,7 3 2 13 7 Z 1015,1 67 0 0,0
19.07.2017 04:00:00 18,6 13,4 17,5 21,7 24,3 18,7 5 3 12 7 ZZO 1015,2 65 0 0,0
19.07.2017 03:00:00 19,1 13,3 16,9 22,4 24,7 18,7 5 3 10 5 Z 1015,2 59 0 0,0
19.07.2017 02:00:00 20,2 13,0 18,2 23,2 25,0 18,7 5 3 15 8 Z 1015,1 70 0 0,0
19.07.2017 01:00:00 21,3 13,4 19,8 23,9 25,4 18,7 9 5 17 9 ZW 1015,1 59 0 0,0
19.07.2017 00:00:00 21,6 14,2 19,1 24,7 25,8 18,7 7 4 11 6 ZW 1015,1 47 0 0,0
18.07.2017 23:00:00 22,6 14,1 20,7 25,7 26,1 18,7 6 4 14 7 NNO 1015,0 50 0 0,0
18.07.2017 22:00:00 24,2 13,9 22,0 27,1 26,4 18,7 11 6 12 7 NW 1014,6 58 0 0,0
18.07.2017 21:00:00 25,6 12,3 21,7 28,7 26,4 18,6 5 3 7 4 W 1014,4 70 29 0,0
18.07.2017 20:00:00 27,5 13,5 26,4 30,2 26,4 18,6 4 2 10 5 ZW 1013,9 59 54 0,0
18.07.2017 19:00:00 28,0 11,4 28,4 31,4 26,1 18,6 10 5 16 9 O 1013,7 66 60 0,0
18.07.2017 18:00:00 29,1 11,3 30,8 32,2 25,7 18,6 8 4 17 9 ONO 1013,9 47 60 0,0
18.07.2017 17:00:00 28,5 10,7 31,2 32,6 25,1 18,6 9 5 17 9 O 1014,4 53 60 0,0
18.07.2017 16:00:00 28,9 12,1 32,9 33,4 24,3 18,6 5 3 17 9 ZZO 1015,0 45 60 0,0
18.07.2017 15:00:00 27,9 11,9 32,2 33,0 23,5 18,6 10 5 34 18 NNO 1015,9 21 57 0,0
18.07.2017 14:00:00 27,1 12,1 32,2 31,7 22,8 18,6 6 3 16 9 ZZW 1016,5 31 51 0,0
18.07.2017 13:00:00 26,1 12,7 28,5 30,5 22,0 18,6 7 4 17 9 NNW 1017,0 29 54 0,0
18.07.2017 12:00:00 25,9 13,7 30,7 28,5 21,4 18,6 4 2 16 9 NO 1017,5 35 59 0,0
18.07.2017 11:00:00 25,0 13,8 29,7 26,3 20,9 18,6 5 3 10 5 N 1018,0 28 60 0,0
18.07.2017 10:00:00 23,7 14,4 28,7 23,8 20,6 18,6 4 2 11 6 ONO 1018,4 41 60 0,0
18.07.2017 09:00:00 21,5 13,6 23,8 21,4 20,6 18,6 5 3 8 5 NO 1019,1 32 60 0,0
18.07.2017 08:00:00 18,5 13,9 19,9 19,3 20,7 18,6 7 4 9 5 ONO 1019,7 36 60 0,0
18.07.2017 07:00:00 16,4 13,3 17,1 18,0 21,0 18,6 3 2 10 5 NO 1020,1 26 60 0,0
18.07.2017 06:00:00 14,3 12,9 13,7 18,0 21,3 18,6 9 5 11 6 NO 1020,5 19 4 0,0
18.07.2017 05:00:00 14,3 12,8 13,4 18,5 21,6 18,6 10 5 12 6 NO 1020,5 20 0 0,0
18.07.2017 04:00:00 14,8 13,1 13,9 19,0 22,0 18,6 10 6 11 6 NO 1020,5 21 0 0,0
18.07.2017 03:00:00 15,4 13,2 14,4 19,6 22,4 18,6 10 5 11 6 NO 1020,9 27 0 0,0
18.07.2017 02:00:00 16,4 13,6 15,6 20,2 22,7 18,6 11 6 12 7 NNO 1020,6 27 0 0,0
18.07.2017 01:00:00 16,9 13,4 15,3 20,9 23,1 18,6 7 4 10 5 NO 1020,7 28 0 0,0
18.07.2017 00:00:00 18,4 13,1 16,5 21,8 23,4 18,6 8 4 9 5 NO 1020,4 37 0 0,0
17.07.2017 23:00:00 20,0 12,5 18,0 22,8 23,7 18,6 7 4 10 5 NNO 1020,1 42 0 0,0
17.07.2017 22:00:00 21,3 12,3 18,5 23,9 23,9 18,6 8 5 11 6 NNW 1019,7 44 0 0,0
17.07.2017 21:00:00 22,4 12,1 19,8 25,5 24,0 18,6 6 3 8 5 WNW 1019,3 48 34 0,0
17.07.2017 20:00:00 24,1 11,6 23,7 26,8 23,9 18,6 4 2 12 6 WNW 1018,9 70 60 0,0
17.07.2017 19:00:00 24,6 11,1 25,6 27,7 23,8 18,6 8 4 16 9 W 1018,8 66 60 0,0
17.07.2017 18:00:00 24,9 12,0 27,2 28,0 23,5 18,6 6 3 14 8 W 1019,1 66 13 0,0
17.07.2017 17:00:00 24,1 11,7 26,3 28,7 23,2 18,6 9 5 17 9 NW 1019,5 57 2 0,0
17.07.2017 16:00:00 24,2 11,7 27,0 29,3 22,6 18,6 12 6 18 10 WNW 1019,7 66 2 0,0
17.07.2017 15:00:00 24,7 11,4 30,9 30,2 21,8 18,6 6 4 17 9 WNW 1019,8 37 36 0,0
17.07.2017 14:00:00 24,2 11,0 29,4 29,7 21,0 18,6 5 3 18 10 ONO 1020,1 57 51 0,0
17.07.2017 13:00:00 23,5 10,4 29,1 28,1 20,3 18,6 6 3 14 7 W 1020,5 37 60 0,0
17.07.2017 12:00:00 22,4 10,9 27,7 25,8 19,7 18,6 5 3 12 6 ZZW 1021,0 42 60 0,0
17.07.2017 11:00:00 21,2 10,5 26,3 22,9 19,3 18,6 6 3 11 6 ONO 1021,7 37 60 0,0
17.07.2017 10:00:00 18,8 9,7 22,0 20,4 19,2 18,7 5 3 8 4 WZW 1022,4 60 35 0,0
17.07.2017 09:00:00 16,9 9,5 19,2 18,6 19,2 18,7 6 3 10 5 OZO 1022,9 39 9 0,0
17.07.2017 08:00:00 15,0 10,3 16,3 17,4 19,4 18,7 5 3 9 5 OZO 1023,1 36 10 0,0

tt = temperatuur
td = dauwpunt
tt 5cm = temperatuur 5cm
tt -5cm = temperatuur -5cm
tt -20cm = temperatuur -20cm
tt -100cm = temperatuur -100cm
ff = windsnelheid
fx = windstoten
dd = windrichting
ppp = luchtdruk
vv = zicht
sd = Zonneschijnduur
rr = neerslag

Weerstations in de omgeving